User: anonymous   Login
Location: Bridgewater Hill Observatory
(43.5992°N, 72.6989°W)
Time: 13:45:58
(UTC-05:00)
Language:

Cosmos 1452 Rocket - Orbit

View from above orbital plane
View from above orbital plane
View from above satellite
View from above satellite

Ground track
Ground track

The orbit data is extracted from the following two-line orbital elements,

1 13992U 83031B   15063.15604137  .00000223  00000-0  85998-4 0  9991
2 13992 074.0518 100.3341 0006401 285.8223 103.8271 14.35893542668808
Epoch (UTC): 04 March 2015 03:44:41
Eccentricity: 0.0006401
inclination: 74.0518°
perigee height: 767 km
apogee height: 776 km
right ascension of ascending node: 100.3341°
argument of perigee: 285.8223°
revolutions per day: 14.35893542
mean anomaly at epoch: 103.8271°
orbit number at epoch: 66880

The dashed part of the orbit path shows where the satellite is in the earth's shadow,  

DLR